Regional Weather Roundup
Issued by NWS

Home | Current Version | Previous Version | Graphics & Text | Print | Product List | Glossary On
Versions: 1 2 3 4 5 6 7 8 9 10 11 12 13 14 15 16 17 18 19 20 21 22 23 24 25 26 27 28 29 30 31 32 33 34 35 36 37 38 39 40 41 42 43 44 45 46 47 48 49 50
000
ASUS45 KTFX 010704
RWRMT
MONTANA HOURLY WEATHER ROUNDUP
NATIONAL WEATHER SERVICE GREAT FALLS MT
104 AM MDT FRI AUG 1 2014

NOTE: "FAIR" INDICATES FEW OR NO CLOUDS BELOW 12000 FEET WITH NO
SIGNIFICANT WEATHER AND/OR OBSTRUCTIONS TO VISIBILITY.

* THESE STATIONS ARE NOT UNDER NWS QUALITY CONTROL. THEY DO NOT
   REPORT WEATHER SUCH AS PRECIPITATION OR FOG.

MTZ001>007-043-010800-
WEST OF THE DIVIDE
CITY           SKY/WX    TMP DP  RH WIND       PRES   REMARKS
KALISPELL      CLEAR     59  52  78 W3        30.07R
MISSOULA       PTCLDY    66  43  43 NW3       30.11R
BUTTE          MOCLDY    57  43  60 SE6       30.27F
MULLAN PASS    PTCLDY    68  32  26 NW6       30.28S
* ESSEX        N/A      N/A N/A N/A N/A        N/A
* LINCOLN      N/A       51  49  93 W1         N/A
* LOOKOUT PASS N/A       66  40  39 VRB2       N/A
* POLSON       N/A       68  41  38 N/A        N/A
* RONAN APT    PTCLDY    63  50  63 N/A        N/A
* SEELEY LAKE  N/A       56  44  64 NE1        N/A
* THOMP F APT  PTCLDY    62  41  46 N13        N/A
$$

MTZ008-052>055-010800-
SOUTHWEST MONTANA
CITY           SKY/WX    TMP DP  RH WIND       PRES   REMARKS
BOZEMAN        MOCLDY    57  45  64 S7        30.19S
DILLON         MOCLDY    64  41  43 S8        30.23F
W YELLOWSTONE  MOCLDY    48  43  83 CALM      30.35R
* THREE FORKS  MOCLDY    63  48  58 N/A        N/A
* BOULDER HILL N/A       64  36  35 S4         N/A
* MONIDA PASS  N/A       54  42  64 W4         N/A
* RAYNOLDS PAS N/A       51  37  59 S1         N/A
* WHITEHALL    N/A       66  38  36 NW6        N/A
* WISE RIVER   N/A       67  37  33 SE7G25     N/A
$$

MTZ009>010-012-014-046-048-049-054-010800-
EAST SLOPES AND CENTRAL MONTANA
CITY           SKY/WX    TMP DP  RH WIND       PRES   REMARKS
CUT BANK       PTCLDY    63  54  73 NW15      30.17R
GREAT FALLS    PTCLDY    63  43  48 SW7       30.12F
MALMSTROM AFB  PTCLDY    63  43  48 S3        30.13S
* CONRAD       CLEAR     55  52  90 N/A        N/A
* DEARBORN     N/A       62  46  56 S4         N/A
* EAST GLACIER N/A       56  47  72 NW9        N/A
* MONARCH      N/A       57  40  53 W2         N/A
* PENDROY      N/A       64  48  56 NE1        N/A
* ROGERS PASS  N/A       60  36  41 NW1        N/A
* SAINT MARY   N/A       54  52  93 E5G14      N/A
* SWEET GRASS  N/A       69  56  63 NW11       N/A
$$

MTZ011-013-016-021-035-040-045-047-050-051-010800-
NORTH CENTRAL MONTANA
CITY           SKY/WX    TMP DP  RH WIND       PRES   REMARKS
HAVRE          CLEAR     64  48  56 CALM      30.06R
LEWISTOWN      PTCLDY    63  46  54 S7        30.16S
* CHESTER      N/A       63  48  58 NE4        N/A
* DENTON       N/A       63  44  50 SW6        N/A
* GEYSER       N/A       61  41  48 S8         N/A
* JUDITH GAP   N/A       65  46  50 N3         N/A
* LOMA         N/A       69  43  39 SW3        N/A
$$

MTZ017>020-022>027-061-062-010800-
NORTHEAST MONTANA
CITY           SKY/WX    TMP DP  RH WIND       PRES   REMARKS
GLASGOW        CLOUDY    73  50  44 CALM      30.01R
GLENDIVE       MOCLDY    68  45  44 N6        30.03R
JORDAN         PTCLDY    75  39  27 S5        30.02R
SIDNEY         PTCLDY    66  55  68 CALM      30.03S
WOLF POINT     CLOUDY    72  57  59 E8        30.00S
* BEAVER HILL  N/A       70  53  55 SE14       N/A
* CIRCLE       N/A       79  46  31 N/A        N/A
* LINDSAY DVD  N/A       66  44  45 NW3        N/A
* NAVAJO       N/A       64  58  81 E4         N/A
$$

MTZ028>042-056>058-010800-
SOUTHCENTRAL AND SOUTHEAST MONTANA
CITY           SKY/WX    TMP DP  RH WIND       PRES   REMARKS
BAKER          MOCLDY    61  48  62 CALM      30.06S
BILLINGS       PTCLDY    72  45  38 S6        30.11S
LIVINGSTON     MOCLDY    68  43  40 SW3       30.21R
MILES CITY     PTCLDY    73  43  34 SE8       30.02F
* LAUREL APT   PTCLDY    68  37  32 N/A        N/A
* ROUNDUP APT  MOCLDY    75  39  27 N/A        N/A
* ALZADA       N/A       64  46  52 E4         N/A
* HYSHAM       N/A       76  39  26 NE3        N/A
* LAME DEER    N/A       74  36  25 S4         N/A
* REED POINT   N/A       74  46  37 SW6G11     N/A
* ROSCOE HILL  N/A       67  38  35 S7G12      N/A
$$

REGIONAL REPORTS...DAKOTAS
CITY           SKY/WX    TMP DP  RH WIND       PRES   REMARKS
WILLISTON      CLEAR     68  59  73 NE3       30.05S
DICKINSON      CLEAR     61  54  78 SE8       30.05S
CROSBY         N/A       55  55 100 E5        30.07S
TIOGA          CLEAR     54  54 100 CALM      30.11S
WATFORD CITY   CLEAR     63  57  81 E3        30.03R
BISMARCK       PTCLDY    63  57  81 E7        30.06R
GRAND FORKS    FOG       63  61  93 CALM      30.01S
FARGO          CLEAR     64  57  78 CALM      30.01S
BUFFALO SD     PTCLDY    63  46  54 SW6       30.01F
RAPID CITY     CLEAR     64  50  61 W6        30.11F
$$

REGIONAL REPORTS...WYOMING/IDAHO/WASHINGTON
CITY           SKY/WX    TMP DP  RH WIND       PRES   REMARKS
GILLETTE       PTCLDY    64  43  47 S9        30.16F
SHERIDAN       CLEAR     61  45  56 S7        30.12S
CODY           PTCLDY    66  39  37 SW6       30.20F
YELLOWSTONE LA MOCLDY    46  41  83 NW3       30.44S
SALMON         CLOUDY    72  45  38 SE8       30.15S
MULLAN PASS    PTCLDY    68  32  26 NW6       30.28S
SAND POINT     CLEAR     59  50  72 CALM      30.02R
SPOKANE        MOCLDY    75  34  22 CALM      30.02R

$$




USA.gov is the U.S. government's official web portal to all federal, state and local government web resources and services.